[[{"header":{"parameterUnit":"m.s-1","parameterCategory":1,"la1":30.2991,"la2":30.254,"lo1":-89.0895,"lo2":-89.0444,"dy":0.0017,"dx":0.0017,"nx":28,"ny":28,"refTime":"2024-06-26T09:00:00:Z","depth":0,"parameterNumber":2,"parameterNumberName":"U-component_of_WINDS"},"data":[0,0,0,0,0,0,0,0,0,0,0,0,0,0,0,0,0,0,0,0,0,0,0,0,0,0,0,0,0,0,0,0,0,0,0,0,0,0,0,0,0,0,0,0,0,0,0,0,0,0,0,0,0,0,0,0,0,0,2.7498,2.7499,0,2.7576,2.7577,2.7578,2.7548,2.7546,2.7544,2.7542,2.7629,2.7633,2.7637,0,0,0,0,0,0,0,0,0,0,0,0,0,2.733,2.7333,2.7498,2.7499,2.75,2.7576,2.7577,2.7578,2.7548,2.7546,2.7543,2.7541,2.7627,2.7632,2.7637,0,0,0,0,0,0,0,0,0,0,0,0,0,2.7405,2.7335,2.7498,2.7494,2.7494,2.7576,2.7577,2.7579,2.7548,2.7546,2.7543,2.754,2.7626,2.7632,2.7638,2.773,0,0,2.7656,2.7659,0,0,0,0,0,0,0,0,2.7401,2.7412,2.7494,2.7494,2.7495,2.7549,2.755,2.763,2.7549,2.7528,2.7542,2.7539,2.7605,2.7613,2.7633,2.7734,2.7738,2.7657,2.766,2.7663,2.7665,0,0,0,0,0,0,0,2.7396,2.7408,2.7529,2.7495,2.7496,2.7491,2.7498,2.7565,2.7581,2.753,2.7528,2.7537,2.7605,2.7628,2.7635,2.7739,2.7656,2.7662,2.7665,2.7668,2.7923,2.7926,0,0,0,0,0,0,2.739,2.7404,2.7527,2.7532,2.744,2.7496,2.7505,2.7535,2.758,2.7585,2.7539,2.7535,2.7619,2.7628,2.7638,2.7751,2.7663,2.7668,2.7672,2.7919,2.7923,2.7927,0,0,0,0,0,0,2.7386,2.7401,2.7524,2.7467,2.7483,2.7502,2.7536,2.7538,2.756,2.7587,2.7591,2.7559,2.7617,2.763,2.7708,2.7754,2.7671,2.7677,2.7916,2.7921,2.7925,2.7977,0,0,0,0,0,0,2.7381,2.74,2.7433,2.7468,2.7486,2.759,2.7539,2.7541,2.757,2.7566,2.7607,2.7611,2.7616,2.7699,2.7714,2.7761,2.7681,2.7912,2.7918,2.7923,2.7972,2.7983,2.7993,0,0,0,0,0,2.7376,2.7446,2.7435,2.745,2.7527,2.7592,2.7603,2.7604,2.7574,2.7609,2.7627,2.761,2.7746,2.7707,2.7723,2.7773,2.7909,2.7916,2.7923,2.7967,2.7981,2.7993,0,0,0,0,0,0,2.7417,2.745,2.7439,2.7522,2.7554,2.7587,2.7631,2.7619,2.7663,2.7657,2.7659,2.7669,2.775,2.7769,2.7725,2.7866,2.7823,2.7834,2.7851,2.7865,2.7875,2.787,2.7686,0,0,0,0,0,2.7436,2.7484,2.751,2.7581,2.7598,2.7612,2.764,2.7639,2.7674,2.7688,2.7711,2.7748,2.7799,2.7832,2.7881,2.7974,2.7984,2.8016,2.8027,2.8036,2.8046,2.8099,2.8115,2.795,2.795,2.795,0,0,2.7475,2.7499,2.7529,2.759,2.7615,2.7668,2.7624,2.768,2.772,2.7697,2.7772,2.7791,2.7832,2.7918,2.7957,2.7937,2.8093,2.8045,2.8052,2.8057,2.8108,2.8124,2.8138,2.7955,2.7954,2.7953,0,0,2.7574,2.7596,2.7658,2.7684,2.7722,2.7731,2.7746,2.7781,2.7792,2.7867,2.7852,2.79,2.7987,2.8018,2.8045,2.8157,2.8144,2.8173,2.823,2.8282,2.8295,2.8307,2.835,2.8364,2.8182,2.8182,2.8182,0,2.7619,2.7695,2.7692,2.775,2.7779,2.7759,2.7824,2.785,2.7903,2.7925,2.79,2.801,2.8036,2.8131,2.8158,2.818,2.82,2.8169,2.8293,2.8305,2.8316,2.8356,2.8372,2.8186,2.8185,2.8185,2.8185,0,2.775,2.7802,2.7849,2.7899,2.7932,2.7994,2.8003,2.8038,2.8034,2.8047,2.8125,2.8155,2.8211,2.8233,2.823,2.8328,2.8314,2.8291,2.8249,2.8335,2.8373,2.8389,2.819,2.8189,2.8188,2.8187,0,0,2.7877,2.7925,2.7943,2.7966,2.8007,2.8049,2.8111,2.8163,2.8195,2.8232,2.8286,2.8361,2.834,2.8371,2.8372,2.8417,2.8507,2.8389,2.839,2.8412,2.8621,2.8639,2.8657,2.8498,2.8501,2.8504,2.8618,0,2.7981,2.8087,2.8088,2.8187,2.8237,2.822,2.8274,2.8306,2.832,2.8367,2.8383,2.8437,2.8404,2.8423,2.8467,2.8487,2.855,2.8478,2.8552,2.8554,2.8544,2.8677,2.8696,2.8803,2.8633,2.8636,2.8637,0,2.8117,2.8157,2.8261,2.8296,2.8317,2.8366,2.8415,2.8459,2.8497,2.8504,2.8539,2.8533,2.8599,2.8552,2.8645,2.8597,2.8627,2.8642,2.8646,2.8655,2.8603,2.8692,2.8837,2.8854,2.8661,2.8659,2.8657,0,2.8203,2.8283,2.8356,2.8376,2.8419,2.8454,2.8474,2.8508,2.854,2.8584,2.8606,2.8657,2.8686,2.8727,2.8737,2.8702,2.8831,2.8785,2.8842,2.8842,2.8871,2.887,2.9025,2.8887,2.8887,2.8886,2.8886,0,2.832,2.8385,2.8395,2.8441,2.8514,2.8515,2.8588,2.8605,2.8636,2.8687,2.8675,2.8723,2.8731,2.8782,2.879,2.8868,2.888,2.889,2.8892,2.8892,2.8892,2.8914,2.8908,2.889,2.889,2.8889,2.8888,0,2.8429,2.8438,2.8517,2.8551,2.8561,2.8614,2.8644,2.8689,2.8701,2.8765,2.878,2.88,2.886,2.8873,2.8943,2.8949,2.9042,2.9035,2.9029,2.9029,2.9086,2.9081,2.9263,2.9288,2.9131,2.9132,2.9134,0,2.8504,2.8554,2.8592,2.8624,2.8645,2.8697,2.8729,2.8733,2.8768,2.8816,2.8856,2.8913,2.8959,2.9056,2.9079,2.9134,2.913,2.919,2.9138,2.9138,2.9134,2.9132,2.9138,2.92,2.9202,2.9203,2.9204,0,2.8638,2.864,2.8686,2.8735,2.8774,2.8813,2.885,2.8877,2.8886,2.8927,2.8986,2.9022,2.9094,2.9153,2.9208,2.9231,2.9221,2.922,2.9237,2.9239,2.9234,2.924,2.9058,2.9217,2.9215,2.9215,2.9214,2.9213,2.8734,2.8778,2.8812,2.8865,2.8893,2.8928,2.8972,2.899,2.9039,2.9096,2.9096,2.9162,2.9201,2.9274,2.9301,2.9354,2.9336,2.9359,2.9366,2.9372,2.9378,2.9224,2.9364,2.9364,2.9363,2.9363,2.9363,0,2.8869,2.8891,2.8939,2.899,2.9033,2.9016,2.9057,2.9094,2.9152,2.9188,2.9233,2.9303,2.9361,2.9388,2.9445,2.9483,2.948,2.9498,2.9497,2.9503,2.939,2.9371,2.95,2.95,2.95,2.95,2.95,2.95,2.8945,2.9019,2.9026,2.9115,2.9136,2.9199,2.9224,2.9258,2.9286,2.9364,2.9411,2.9427,2.9461,2.9521,2.9574,2.9581,2.9604,2.9625,2.963,2.9524,2.9511,2.9497,2.948,2.9629,2.9629,2.9738,2.9739,2.974]},{"header":{"parameterUnit":"m.s-1","parameterCategory":1,"la1":30.2991,"la2":30.254,"lo1":-89.0895,"lo2":-89.0444,"dy":0.0017,"dx":0.0017,"nx":28,"ny":28,"refTime":"2024-06-26T09:00:00:Z","depth":0,"parameterNumber":3,"parameterNumberName":"V-component_of_WINDS"},"data":[0,0,0,0,0,0,0,0,0,0,0,0,0,0,0,0,0,0,0,0,0,0,0,0,0,0,0,0,0,0,0,0,0,0,0,0,0,0,0,0,0,0,0,0,0,0,0,0,0,0,0,0,0,0,0,0,0,0,0.7703,0.7703,0,0.7667,0.7666,0.7666,0.7639,0.7639,0.7638,0.7638,0.76,0.7599,0.7598,0,0,0,0,0,0,0,0,0,0,0,0,0,0.7747,0.7746,0.7703,0.7703,0.7702,0.7667,0.7666,0.7666,0.7639,0.7639,0.7638,0.7638,0.76,0.7599,0.7598,0,0,0,0,0,0,0,0,0,0,0,0,0,0.7721,0.7746,0.7703,0.7685,0.7683,0.7667,0.7666,0.7666,0.7639,0.7639,0.7638,0.7638,0.76,0.7599,0.7598,0.7597,0,0,0.7594,0.7594,0,0,0,0,0,0,0,0,0.7722,0.7719,0.7688,0.7686,0.7684,0.7657,0.7667,0.7643,0.7639,0.7656,0.7638,0.7638,0.7619,0.7616,0.761,0.7595,0.7594,0.7594,0.7593,0.7593,0.7592,0,0,0,0,0,0,0,0.7724,0.7721,0.7689,0.7688,0.7685,0.7677,0.7673,0.7663,0.764,0.7654,0.7652,0.7648,0.7618,0.7611,0.7609,0.7593,0.7594,0.7593,0.7592,0.7592,0.7572,0.7573,0,0,0,0,0,0,0.7729,0.7722,0.769,0.7688,0.7703,0.7677,0.7672,0.7666,0.764,0.7635,0.7649,0.7647,0.7613,0.761,0.7607,0.7603,0.7593,0.7592,0.7591,0.7572,0.7572,0.7573,0,0,0,0,0,0,0.773,0.7727,0.7691,0.7704,0.7699,0.7676,0.767,0.7665,0.7659,0.7635,0.7631,0.7646,0.7613,0.7609,0.7599,0.7601,0.7591,0.759,0.7572,0.7572,0.7572,0.7595,0,0,0,0,0,0,0.7732,0.7727,0.7728,0.7705,0.7699,0.7685,0.767,0.7665,0.7657,0.7655,0.7632,0.7628,0.7613,0.7601,0.7598,0.7599,0.7589,0.7572,0.7572,0.7572,0.7594,0.7596,0.7598,0,0,0,0,0,0.7733,0.7736,0.7728,0.7724,0.7699,0.7685,0.7682,0.7664,0.7657,0.7657,0.7641,0.7629,0.7601,0.76,0.7597,0.7598,0.7571,0.7572,0.7572,0.7593,0.7596,0.7598,0,0,0,0,0,0,0.776,0.7733,0.7723,0.7719,0.7705,0.7681,0.768,0.7668,0.7655,0.7653,0.7631,0.7626,0.7618,0.7607,0.7606,0.7594,0.7585,0.7584,0.7602,0.7604,0.7606,0.7608,0.7588,0,0,0,0,0,0.7765,0.7757,0.7733,0.7732,0.7725,0.7704,0.7697,0.7684,0.7668,0.7662,0.7646,0.763,0.7618,0.761,0.7598,0.7592,0.7585,0.759,0.7592,0.7594,0.7594,0.7587,0.7588,0.7574,0.7574,0.7574,0,0,0.7777,0.7761,0.7757,0.7737,0.7724,0.7715,0.7699,0.769,0.7683,0.7661,0.765,0.7637,0.7618,0.7609,0.7605,0.76,0.7596,0.7595,0.7596,0.7595,0.7588,0.7589,0.759,0.7575,0.7574,0.7574,0,0,0.7792,0.778,0.7776,0.7763,0.7744,0.7729,0.7728,0.7705,0.7696,0.7685,0.7667,0.7657,0.7637,0.7623,0.7613,0.762,0.7607,0.7616,0.7627,0.762,0.7621,0.7622,0.7623,0.7623,0.7616,0.7617,0.7617,0,0.7808,0.7794,0.7775,0.7767,0.7757,0.7736,0.7731,0.7719,0.7697,0.769,0.7685,0.7657,0.7643,0.7629,0.763,0.7624,0.7621,0.7619,0.7623,0.7623,0.7624,0.7624,0.7625,0.7618,0.7618,0.7617,0.7617,0,0.7814,0.7804,0.7803,0.7781,0.7772,0.7765,0.7743,0.7736,0.7723,0.7708,0.7695,0.7677,0.7659,0.7655,0.7644,0.7639,0.7636,0.7627,0.7618,0.7627,0.7626,0.7627,0.7619,0.7619,0.7619,0.7618,0,0,0.7847,0.7813,0.7812,0.7801,0.7777,0.7769,0.776,0.7742,0.7735,0.7719,0.771,0.7692,0.7682,0.7671,0.7657,0.7652,0.7655,0.7643,0.7642,0.7644,0.7647,0.7653,0.7654,0.7646,0.7646,0.7646,0.7648,0,0.7857,0.7841,0.7822,0.7812,0.7801,0.778,0.7771,0.7755,0.774,0.7728,0.7711,0.7698,0.7688,0.768,0.7674,0.7656,0.7655,0.7656,0.7636,0.7636,0.7641,0.7654,0.7662,0.7664,0.7648,0.7648,0.7648,0,0.7868,0.7852,0.7841,0.7815,0.781,0.7803,0.7784,0.7773,0.7753,0.7742,0.7729,0.7713,0.7701,0.7692,0.7673,0.7674,0.7665,0.7654,0.7654,0.7651,0.7642,0.7651,0.7665,0.7665,0.7648,0.7648,0.7648,0,0.789,0.7867,0.7856,0.7848,0.7818,0.7813,0.7801,0.778,0.777,0.7752,0.7745,0.7727,0.7716,0.7702,0.7681,0.7677,0.7663,0.7654,0.7653,0.7653,0.7651,0.7651,0.7663,0.7646,0.7646,0.7646,0.7646,0,0.7903,0.7897,0.7866,0.786,0.7851,0.7828,0.7819,0.7805,0.7786,0.7775,0.7755,0.7745,0.7718,0.7704,0.7687,0.7673,0.7669,0.7659,0.7654,0.766,0.7661,0.7653,0.7652,0.7646,0.7646,0.7646,0.7646,0,0.7928,0.7907,0.7894,0.7866,0.7859,0.7853,0.7829,0.7821,0.7804,0.779,0.7785,0.7759,0.7741,0.7719,0.7694,0.7682,0.767,0.7663,0.7677,0.7674,0.7674,0.7674,0.768,0.7679,0.7664,0.7664,0.7665,0,0.7937,0.7931,0.7903,0.7894,0.7882,0.7868,0.7857,0.7834,0.7823,0.7798,0.7792,0.7773,0.7756,0.7728,0.7706,0.7686,0.7678,0.7682,0.7675,0.768,0.7677,0.7677,0.7675,0.7684,0.7684,0.7684,0.7684,0,0.7955,0.7945,0.793,0.7911,0.7898,0.7882,0.7865,0.7859,0.7831,0.782,0.7801,0.7788,0.7762,0.7742,0.7719,0.7704,0.7689,0.7686,0.7685,0.7691,0.7698,0.7693,0.768,0.7687,0.7686,0.7686,0.7686,0.7686,0.7971,0.7964,0.7943,0.7926,0.7911,0.7894,0.7885,0.7866,0.7851,0.7828,0.7814,0.7796,0.7773,0.774,0.7725,0.7709,0.7704,0.7702,0.7702,0.7701,0.7703,0.7701,0.7705,0.7705,0.7705,0.7705,0.7705,0,0.7987,0.7972,0.7957,0.7933,0.792,0.7907,0.7886,0.7875,0.7859,0.784,0.7823,0.78,0.778,0.7756,0.7734,0.7725,0.7718,0.772,0.772,0.7717,0.7709,0.7712,0.7727,0.7727,0.7727,0.7727,0.7727,0.7727,0.7994,0.7981,0.7967,0.7945,0.7929,0.7911,0.79,0.7885,0.7868,0.7844,0.7827,0.7812,0.7789,0.7765,0.7745,0.7738,0.773,0.7735,0.7726,0.7719,0.7718,0.7716,0.7718,0.7734,0.7734,0.7734,0.7734,0.7734]}]]